[[{"header":{"parameterUnit":"m.s-1","parameterCategory":2,"la1":30.2991,"la2":30.254,"lo1":-89.0895,"lo2":-89.0444,"dy":0.0017,"dx":0.0017,"nx":28,"ny":28,"refTime":"2024-10-09T03:00:00:Z","depth":"0","parameterNumber":2,"parameterNumberName":"U-component_of_CURRENTS"},"data":[0,0,0,0,0,0,0,0,0,0,0,0,0,0,0,0,0,0,0,0,0,0,0,0,0,0,0,0,0,0,0,0,0,0,0,0,0,0,0,0,0,0,0,0,0,0,0,0,0,0,0,0,0,0,0,0,0,0,0.2923,0.2923,0,0.2941,0.2941,0.2941,0.2931,0.2931,0.293,0.293,0.2924,0.2925,0.2925,0,0,0,0,0,0,0,0,0,0,0,0,0,0.2902,0.2902,0.2923,0.2923,0.2924,0.2941,0.2941,0.2941,0.2931,0.2931,0.293,0.293,0.2924,0.2924,0.2925,0,0,0,0,0,0,0,0,0,0,0,0,0,0.2913,0.2902,0.2923,0.2922,0.2923,0.2941,0.2941,0.2941,0.2931,0.2931,0.293,0.293,0.2924,0.2924,0.2925,0.2936,0,0,0.2925,0.2926,0,0,0,0,0,0,0,0,0.2912,0.2913,0.2922,0.2922,0.2923,0.2935,0.2932,0.2939,0.2931,0.2926,0.293,0.2929,0.2927,0.2927,0.2929,0.2936,0.2935,0.2925,0.2926,0.2926,0.2926,0,0,0,0,0,0,0,0.2911,0.2912,0.2928,0.2923,0.2923,0.2929,0.2929,0.2933,0.2927,0.2926,0.2926,0.2931,0.2927,0.2929,0.2929,0.2935,0.2925,0.2926,0.2926,0.2926,0.2978,0.2979,0,0,0,0,0,0,0.2912,0.2912,0.2928,0.2929,0.2918,0.2929,0.293,0.293,0.2928,0.2928,0.2932,0.2931,0.2929,0.2929,0.2929,0.2962,0.2926,0.2926,0.2926,0.2976,0.2978,0.2979,0,0,0,0,0,0,0.2912,0.2913,0.2927,0.2923,0.2925,0.293,0.293,0.2931,0.2936,0.2932,0.2931,0.2937,0.2929,0.2929,0.2941,0.2961,0.2926,0.2926,0.2975,0.2977,0.2978,0.3015,0,0,0,0,0,0,0.2911,0.2913,0.2913,0.2922,0.2925,0.2943,0.2931,0.2931,0.2941,0.294,0.2937,0.2936,0.2928,0.2941,0.2941,0.296,0.2926,0.2973,0.2976,0.2978,0.3012,0.3018,0.3023,0,0,0,0,0,0.291,0.2913,0.2913,0.2915,0.2925,0.2944,0.2946,0.2947,0.2942,0.2949,0.2949,0.2936,0.2956,0.2942,0.2942,0.2962,0.2972,0.2975,0.2978,0.301,0.3017,0.3023,0,0,0,0,0,0,0.2908,0.2913,0.2913,0.2918,0.2933,0.2943,0.2951,0.2952,0.2958,0.2957,0.2948,0.2948,0.297,0.2962,0.2947,0.2985,0.2963,0.2966,0.2988,0.2994,0.3,0.3017,0.2927,0,0,0,0,0,0.2908,0.2908,0.2921,0.2927,0.2935,0.2944,0.2952,0.2955,0.2963,0.2965,0.2964,0.2968,0.2982,0.2984,0.2993,0.3009,0.3025,0.3024,0.3029,0.3034,0.305,0.3091,0.3102,0.2988,0.2988,0.2988,0,0,0.2906,0.2912,0.2911,0.2926,0.2936,0.2955,0.2947,0.2964,0.2981,0.2964,0.2982,0.2987,0.2992,0.3015,0.3023,0.3009,0.3075,0.3037,0.3041,0.3055,0.3095,0.3106,0.3116,0.299,0.299,0.2989,0,0,0.2911,0.2913,0.2918,0.2933,0.2954,0.2965,0.2972,0.2988,0.2995,0.3013,0.3014,0.3035,0.3039,0.3057,0.3065,0.3106,0.3105,0.3104,0.3139,0.3179,0.3189,0.3198,0.3234,0.3245,0.3101,0.3102,0.3102,0,0.2913,0.2917,0.2925,0.2942,0.2956,0.2972,0.299,0.3007,0.3024,0.3038,0.3022,0.3065,0.3065,0.3112,0.3126,0.3119,0.3139,0.3111,0.3186,0.3195,0.3204,0.3238,0.3251,0.3104,0.3103,0.3103,0.3103,0,0.292,0.293,0.2939,0.2962,0.2983,0.3,0.303,0.305,0.3057,0.3074,0.3115,0.3124,0.3149,0.3155,0.3151,0.3215,0.321,0.3191,0.3169,0.3217,0.3251,0.3263,0.3107,0.3106,0.3105,0.3105,0,0,0.2901,0.2935,0.2937,0.295,0.2992,0.3008,0.3051,0.309,0.3128,0.314,0.3186,0.3213,0.3221,0.3232,0.3237,0.3273,0.3345,0.3258,0.3259,0.3293,0.3437,0.339,0.3398,0.3337,0.3339,0.3341,0.3437,0,0.2902,0.2925,0.2949,0.298,0.2994,0.3033,0.3074,0.3117,0.3156,0.3208,0.3232,0.328,0.3249,0.3274,0.3303,0.3348,0.338,0.3322,0.3388,0.339,0.334,0.3412,0.3279,0.3349,0.3449,0.3451,0.3453,0,0.2893,0.2911,0.2933,0.2983,0.2996,0.3025,0.3097,0.3139,0.3224,0.3262,0.3314,0.334,0.3409,0.3371,0.3458,0.3422,0.3434,0.3455,0.3459,0.3413,0.3365,0.3318,0.3368,0.3289,0.3471,0.347,0.3469,0,0.2852,0.2897,0.291,0.2925,0.299,0.3016,0.3058,0.3146,0.3203,0.3309,0.3363,0.3432,0.348,0.3515,0.3545,0.3513,0.3639,0.3594,0.3561,0.3558,0.3458,0.3442,0.3438,0.3652,0.3652,0.3651,0.3651,0,0.283,0.2839,0.289,0.2896,0.2931,0.299,0.3054,0.312,0.3234,0.3301,0.3383,0.3455,0.3519,0.3585,0.3593,0.3626,0.3672,0.3594,0.3589,0.3466,0.345,0.3386,0.3339,0.3655,0.3654,0.3653,0.3653,0,0.2776,0.2806,0.2826,0.2887,0.2909,0.2934,0.3042,0.3096,0.3215,0.3313,0.3352,0.3499,0.3591,0.3645,0.3727,0.3687,0.3623,0.3716,0.3568,0.3543,0.3411,0.337,0.3265,0.3161,0.3701,0.3701,0.37,0,0.2746,0.2749,0.2804,0.2817,0.2843,0.2896,0.2937,0.3067,0.3136,0.3324,0.3364,0.3511,0.3592,0.3717,0.3705,0.3735,0.3611,0.3599,0.3506,0.3411,0.3363,0.3234,0.3144,0.3393,0.339,0.3388,0.3386,0,0.2692,0.2712,0.2729,0.2761,0.2794,0.2835,0.2906,0.2968,0.3114,0.3208,0.3349,0.3446,0.3582,0.3577,0.3622,0.361,0.3422,0.3549,0.3491,0.3164,0.2985,0.2879,0.3328,0.3365,0.3367,0.3369,0.337,0.3371,0.2648,0.2646,0.2673,0.2695,0.2726,0.2756,0.2766,0.2859,0.2951,0.3056,0.3223,0.3293,0.3393,0.3459,0.3437,0.3315,0.3291,0.3193,0.3169,0.3061,0.2898,0.3304,0.3305,0.3307,0.3308,0.3309,0.3311,0,0.2582,0.2588,0.2607,0.2619,0.2611,0.2663,0.2722,0.2714,0.2761,0.2883,0.2976,0.3043,0.3069,0.3123,0.3086,0.2955,0.2814,0.2861,0.2652,0.2595,0.3003,0.2927,0.2796,0.2796,0.2796,0.2796,0.2796,0.2796,0.2547,0.2528,0.2535,0.2492,0.25,0.2453,0.2461,0.2472,0.2525,0.2551,0.2569,0.2652,0.2832,0.2883,0.2776,0.2702,0.2477,0.2358,0.2354,0.2657,0.2686,0.2713,0.2631,0.244,0.244,0.1834,0.1829,0.1826]},{"header":{"parameterUnit":"m.s-1","parameterCategory":2,"la1":30.2991,"la2":30.254,"lo1":-89.0895,"lo2":-89.0444,"dy":0.0017,"dx":0.0017,"nx":28,"ny":28,"refTime":"2024-10-09T03:00:00:Z","depth":"0","parameterNumber":3,"parameterNumberName":"V-component_of_CURRENTS"},"data":[0,0,0,0,0,0,0,0,0,0,0,0,0,0,0,0,0,0,0,0,0,0,0,0,0,0,0,0,0,0,0,0,0,0,0,0,0,0,0,0,0,0,0,0,0,0,0,0,0,0,0,0,0,0,0,0,0,0,-0.0164,-0.0165,0,-0.0228,-0.0229,-0.023,-0.0273,-0.0274,-0.0274,-0.0274,-0.0351,-0.0353,-0.0355,0,0,0,0,0,0,0,0,0,0,0,0,0,-0.014,-0.014,-0.0164,-0.0165,-0.0166,-0.0228,-0.0229,-0.023,-0.0273,-0.0274,-0.0274,-0.0274,-0.0351,-0.0353,-0.0355,0,0,0,0,0,0,0,0,0,0,0,0,0,-0.0173,-0.014,-0.0164,-0.0193,-0.0196,-0.0228,-0.0229,-0.023,-0.0273,-0.0274,-0.0274,-0.0274,-0.035,-0.0353,-0.0356,-0.0369,0,0,-0.0365,-0.0366,0,0,0,0,0,0,0,0,-0.0171,-0.0174,-0.0188,-0.0191,-0.0195,-0.0241,-0.0249,-0.0277,-0.0273,-0.0246,-0.0274,-0.0274,-0.0314,-0.032,-0.0334,-0.0373,-0.0376,-0.0365,-0.0367,-0.0368,-0.0369,0,0,0,0,0,0,0,-0.0169,-0.0172,-0.0191,-0.0189,-0.0193,-0.0224,-0.0228,-0.0255,-0.028,-0.0249,-0.0251,-0.0255,-0.0317,-0.0331,-0.0337,-0.0377,-0.0365,-0.0367,-0.0369,-0.037,-0.0424,-0.0424,0,0,0,0,0,0,-0.0154,-0.017,-0.0189,-0.0193,-0.0181,-0.0223,-0.0229,-0.0228,-0.028,-0.0287,-0.0255,-0.0257,-0.0326,-0.0333,-0.0339,-0.0343,-0.0368,-0.0371,-0.0372,-0.0425,-0.0424,-0.0424,0,0,0,0,0,0,-0.0153,-0.0155,-0.0187,-0.0182,-0.0188,-0.0223,-0.0222,-0.0229,-0.0239,-0.0284,-0.0292,-0.0258,-0.0327,-0.0335,-0.0355,-0.0346,-0.0372,-0.0374,-0.0425,-0.0425,-0.0424,-0.0359,0,0,0,0,0,0,-0.0152,-0.0154,-0.0149,-0.018,-0.0187,-0.0194,-0.0222,-0.023,-0.0241,-0.0244,-0.0289,-0.0297,-0.0328,-0.0351,-0.0358,-0.0351,-0.0377,-0.0425,-0.0425,-0.0424,-0.0362,-0.0356,-0.0352,0,0,0,0,0,-0.0151,-0.0138,-0.0148,-0.015,-0.0179,-0.0193,-0.02,-0.0228,-0.024,-0.0239,-0.027,-0.0295,-0.0352,-0.0352,-0.0361,-0.0355,-0.0426,-0.0425,-0.0424,-0.0364,-0.0357,-0.0352,0,0,0,0,0,0,-0.0129,-0.0142,-0.0154,-0.0147,-0.0164,-0.02,-0.0202,-0.022,-0.0245,-0.0248,-0.0292,-0.0301,-0.0317,-0.0344,-0.0343,-0.0369,-0.0393,-0.0394,-0.0344,-0.0339,-0.0334,-0.0314,-0.0379,0,0,0,0,0,-0.0119,-0.0112,-0.0135,-0.013,-0.0135,-0.0167,-0.0177,-0.0193,-0.0219,-0.023,-0.0262,-0.0295,-0.0322,-0.0335,-0.0365,-0.0377,-0.0397,-0.0379,-0.0374,-0.037,-0.0359,-0.0386,-0.0383,-0.0422,-0.0422,-0.0422,0,0,-0.011,-0.0117,-0.0114,-0.0125,-0.0142,-0.0137,-0.0174,-0.018,-0.0179,-0.0234,-0.0242,-0.028,-0.0322,-0.0337,-0.0347,-0.0357,-0.0368,-0.0369,-0.0365,-0.0357,-0.0385,-0.0381,-0.0378,-0.0421,-0.0421,-0.0421,0,0,-0.0082,-0.0093,-0.0074,-0.0083,-0.0097,-0.0114,-0.011,-0.0138,-0.0153,-0.0166,-0.0207,-0.0233,-0.0275,-0.0303,-0.0323,-0.0308,-0.0343,-0.0321,-0.0278,-0.0304,-0.0301,-0.0299,-0.0311,-0.031,-0.0316,-0.0316,-0.0316,0,-0.0071,-0.005,-0.0073,-0.0059,-0.0058,-0.0096,-0.0076,-0.0097,-0.0128,-0.0135,-0.0157,-0.0218,-0.0257,-0.0275,-0.0273,-0.0296,-0.0313,-0.0295,-0.0297,-0.0295,-0.0293,-0.0307,-0.0307,-0.0313,-0.0313,-0.0314,-0.0314,0,-0.0027,-0.0013,-0.0004,0.0005,0.0002,0.0012,-0.0013,-0.0021,-0.0044,-0.0067,-0.0092,-0.0149,-0.0181,-0.0203,-0.0235,-0.0244,-0.0259,-0.0288,-0.0308,-0.0285,-0.0301,-0.0302,-0.0308,-0.0309,-0.031,-0.0311,0,0,0.001,0.0026,0.0031,0.0048,0.004,0.0045,0.0047,0.0042,0.0052,0.0004,0.0008,-0.0055,-0.0088,-0.0113,-0.0162,-0.019,-0.0198,-0.0229,-0.0232,-0.0233,-0.0244,-0.024,-0.0241,-0.0228,-0.0228,-0.0228,-0.0255,0,0.0053,0.0102,0.0095,0.0137,0.016,0.013,0.0136,0.0122,0.0104,0.0097,0.003,0.0011,-0.0053,-0.0068,-0.0105,-0.0172,-0.0199,-0.0187,-0.0272,-0.0274,-0.0267,-0.0242,-0.0207,-0.0227,-0.0257,-0.0257,-0.0257,0,0.0105,0.0132,0.0185,0.0209,0.0215,0.0228,0.0241,0.0245,0.0218,0.0201,0.0168,0.0116,0.0069,0.0007,-0.0088,-0.0077,-0.015,-0.0209,-0.0213,-0.0231,-0.0272,-0.0257,-0.0228,-0.0352,-0.0259,-0.0259,-0.0258,0,0.0155,0.0196,0.0244,0.0252,0.0268,0.028,0.0287,0.0276,0.03,0.0272,0.0285,0.0208,0.0186,0.0079,-0.0039,-0.0064,-0.0141,-0.0192,-0.0258,-0.0259,-0.0256,-0.0256,-0.035,-0.026,-0.026,-0.026,-0.026,0,0.0211,0.0248,0.0271,0.0295,0.035,0.0335,0.039,0.0381,0.0391,0.0436,0.0346,0.0373,0.0203,0.0135,0.0004,-0.0112,-0.0106,-0.0238,-0.0263,-0.0232,-0.0229,-0.036,-0.0451,-0.0261,-0.0261,-0.026,-0.026,0,0.0261,0.0275,0.0332,0.0362,0.0377,0.0416,0.047,0.0512,0.0503,0.0561,0.0557,0.0507,0.0427,0.0257,0.01,-0.0033,-0.0233,-0.0211,-0.0154,-0.0172,-0.036,-0.0447,-0.0577,-0.063,-0.0289,-0.0289,-0.0289,0,0.0292,0.0328,0.039,0.0434,0.0451,0.0509,0.0553,0.0567,0.0628,0.066,0.0704,0.0642,0.0641,0.0417,0.017,-0.005,-0.0206,-0.0188,-0.0238,-0.0351,-0.0469,-0.0536,-0.0576,-0.0209,-0.0208,-0.0208,-0.0207,0,0.0354,0.0374,0.0423,0.0514,0.0573,0.0651,0.072,0.0787,0.0815,0.0882,0.0968,0.0971,0.0756,0.0574,0.0248,0.0076,-0.0271,-0.0184,-0.032,-0.0423,-0.0484,-0.0551,-0.0206,-0.0202,-0.0203,-0.0203,-0.0204,-0.0204,0.04,0.0448,0.0514,0.0602,0.0679,0.0782,0.0861,0.096,0.1084,0.1196,0.1187,0.1239,0.092,0.0506,0.0249,-0.0203,-0.0236,-0.0343,-0.0441,-0.0498,-0.055,-0.0185,-0.0201,-0.0202,-0.0202,-0.0203,-0.0203,0,0.046,0.0513,0.0599,0.0703,0.0802,0.0828,0.0967,0.1064,0.1237,0.1364,0.146,0.136,0.0979,0.054,-0.0069,-0.0391,-0.0525,-0.058,-0.0674,-0.0705,-0.0387,-0.0383,-0.0415,-0.0415,-0.0415,-0.0415,-0.0415,-0.0415,0.0492,0.0581,0.0623,0.0787,0.0867,0.1,0.1086,0.1246,0.1375,0.1571,0.1638,0.1649,0.131,0.024,-0.0479,-0.0655,-0.0892,-0.0947,-0.1072,-0.0865,-0.0851,-0.0837,-0.0853,-0.0984,-0.0984,-0.1323,-0.1326,-0.1329]}],[{"header":{"parameterUnit":"m.s-1","parameterCategory":2,"la1":30.2991,"la2":30.254,"lo1":-89.0895,"lo2":-89.0444,"dy":0.0017,"dx":0.0017,"nx":28,"ny":28,"refTime":"2024-10-09T03:00:00:Z","depth":"2","parameterNumber":2,"parameterNumberName":"U-component_of_CURRENTS"},"data":[0,0,0,0,0,0,0,0,0,0,0,0,0,0,0,0,0,0,0,0,0,0,0,0,0,0,0,0,0,0,0,0,0,0,0,0,0,0,0,0,0,0,0,0,0,0,0,0,0,0,0,0,0,0,0,0,0,0,0.2453,0.2453,0,0.2477,0.2477,0.2478,0.2486,0.2487,0.2487,0.2487,0.2507,0.2507,0.2508,0,0,0,0,0,0,0,0,0,0,0,0,0,0.2417,0.2417,0.2453,0.2453,0.2454,0.2477,0.2477,0.2478,0.2486,0.2487,0.2487,0.2487,0.2507,0.2507,0.2508,0,0,0,0,0,0,0,0,0,0,0,0,0,0.2434,0.2417,0.2453,0.2462,0.2463,0.2477,0.2477,0.2478,0.2486,0.2487,0.2487,0.2487,0.2507,0.2507,0.2508,0.251,0,0,0.251,0.251,0,0,0,0,0,0,0,0,0.2433,0.2435,0.246,0.2462,0.2463,0.248,0.2472,0.2489,0.2486,0.2476,0.2487,0.2487,0.2499,0.25,0.2502,0.2511,0.2512,0.251,0.2511,0.2511,0.2511,0,0,0,0,0,0,0,0.2432,0.2434,0.2461,0.2461,0.2463,0.2466,0.2469,0.2475,0.2485,0.2477,0.2478,0.2483,0.2499,0.2501,0.2503,0.2512,0.251,0.2511,0.2511,0.2511,0.2576,0.2577,0,0,0,0,0,0,0.2432,0.2433,0.246,0.2462,0.245,0.2467,0.247,0.2473,0.2485,0.2487,0.2483,0.2484,0.25,0.2502,0.2503,0.2551,0.2511,0.2512,0.2512,0.2575,0.2576,0.2578,0,0,0,0,0,0,0.2431,0.2434,0.2459,0.2449,0.2453,0.2468,0.2472,0.2474,0.249,0.249,0.2492,0.2499,0.25,0.2502,0.2526,0.255,0.2512,0.2512,0.2573,0.2575,0.2577,0.2617,0,0,0,0,0,0,0.243,0.2434,0.244,0.2449,0.2454,0.2479,0.2472,0.2474,0.2493,0.2494,0.2504,0.2505,0.25,0.2525,0.2527,0.255,0.2513,0.2572,0.2574,0.2577,0.2614,0.262,0.2625,0,0,0,0,0,0.2429,0.2437,0.244,0.2444,0.2461,0.248,0.2483,0.2492,0.2494,0.2506,0.2515,0.2506,0.2542,0.2527,0.2528,0.2552,0.2571,0.2574,0.2576,0.2612,0.2619,0.2625,0,0,0,0,0,0,0.2425,0.2439,0.2443,0.2455,0.2472,0.2482,0.2495,0.2501,0.2517,0.2522,0.2519,0.2522,0.2554,0.2549,0.2532,0.258,0.2556,0.2559,0.2582,0.2589,0.2595,0.261,0.2514,0,0,0,0,0,0.2428,0.2438,0.2453,0.2465,0.2475,0.2488,0.2498,0.2507,0.2521,0.2528,0.2535,0.2547,0.2565,0.2573,0.2586,0.2608,0.2618,0.2626,0.2632,0.2636,0.2651,0.2684,0.2694,0.2587,0.2587,0.2587,0,0,0.2429,0.244,0.2446,0.2466,0.2479,0.2499,0.2495,0.2518,0.2539,0.2528,0.2559,0.2569,0.2577,0.2606,0.262,0.2604,0.2673,0.264,0.2644,0.2657,0.2688,0.2698,0.2707,0.2589,0.2589,0.2589,0,0,0.2439,0.245,0.2462,0.248,0.2506,0.2516,0.2527,0.2548,0.2562,0.259,0.2594,0.2622,0.2637,0.2654,0.2663,0.2708,0.2705,0.271,0.2747,0.2778,0.2787,0.2795,0.2825,0.2836,0.2709,0.2709,0.2709,0,0.2442,0.2455,0.247,0.2491,0.2505,0.2527,0.2546,0.2569,0.2595,0.2611,0.2607,0.2657,0.2663,0.2707,0.2727,0.2721,0.2738,0.2717,0.2785,0.2794,0.2801,0.283,0.2841,0.2711,0.2711,0.271,0.271,0,0.2457,0.2475,0.2487,0.2517,0.2538,0.256,0.2591,0.2617,0.2635,0.2653,0.2702,0.2719,0.2748,0.2757,0.2757,0.2817,0.2811,0.2791,0.2767,0.2814,0.2842,0.2852,0.2714,0.2713,0.2713,0.2712,0,0,0.2443,0.2487,0.2491,0.2506,0.2552,0.2567,0.2613,0.2652,0.2691,0.2717,0.2764,0.2801,0.2816,0.2829,0.2837,0.2869,0.2937,0.2858,0.2859,0.2886,0.3013,0.2962,0.2969,0.2927,0.2929,0.2931,0.3012,0,0.2448,0.2478,0.2505,0.2539,0.2555,0.2594,0.2636,0.2679,0.2722,0.2777,0.2806,0.2859,0.2841,0.2872,0.2899,0.2936,0.2968,0.2918,0.2966,0.2967,0.2914,0.298,0.2742,0.279,0.3022,0.3024,0.3025,0,0.2446,0.2467,0.2496,0.2544,0.2557,0.2589,0.2658,0.2702,0.2786,0.2826,0.2881,0.2912,0.2979,0.2954,0.3031,0.3001,0.3016,0.3034,0.3037,0.2985,0.2937,0.278,0.2801,0.3043,0.3041,0.304,0.3039,0,0.2408,0.2457,0.2476,0.2492,0.2557,0.2584,0.2628,0.2713,0.2764,0.2873,0.2921,0.2992,0.3041,0.3074,0.3106,0.308,0.3186,0.3145,0.3112,0.3108,0.2914,0.2889,0.3199,0.3199,0.3199,0.3199,0.3199,0,0.239,0.2405,0.2462,0.2472,0.2511,0.2568,0.2632,0.2697,0.2802,0.2862,0.2945,0.3005,0.3076,0.3131,0.3144,0.3169,0.3211,0.3143,0.3134,0.2921,0.2898,0.3117,0.3106,0.3202,0.3201,0.3201,0.32,0,0.2342,0.2378,0.2403,0.2469,0.2493,0.2524,0.2625,0.2673,0.2786,0.2873,0.2912,0.3038,0.312,0.3174,0.325,0.3216,0.3248,0.3239,0.2991,0.2951,0.314,0.3131,0.3219,0.3218,0.3217,0.3216,0.3216,0,0.2318,0.2326,0.2388,0.2404,0.2435,0.2493,0.2533,0.2654,0.2709,0.2874,0.2903,0.3035,0.3095,0.32,0.3192,0.322,0.3256,0.2995,0.29,0.3164,0.3146,0.3138,0.313,0.2658,0.2653,0.2649,0.2646,0,0.2271,0.2297,0.2316,0.2353,0.2389,0.2426,0.2495,0.2535,0.2669,0.2742,0.2845,0.292,0.3043,0.2976,0.3029,0.3,0.2974,0.2912,0.3258,0.2694,0.2643,0.2623,0.2632,0.2609,0.2612,0.2615,0.2617,0.2619,0.2233,0.2233,0.2263,0.2286,0.2321,0.2337,0.2334,0.2405,0.2465,0.2538,0.2688,0.2714,0.2782,0.2749,0.268,0.2627,0.2826,0.268,0.269,0.2704,0.2628,0.2579,0.2519,0.2522,0.2525,0.2527,0.2529,0,0.217,0.2177,0.2194,0.2203,0.219,0.2252,0.2281,0.2245,0.2247,0.2357,0.2421,0.2275,0.2264,0.2323,0.22,0.2216,0.216,0.2111,0.2008,0.2049,0.2084,0.1972,0.1691,0.1688,0.1685,0.1683,0,0,0.2138,0.2114,0.2114,0.2061,0.2072,0.2015,0.2004,0.1971,0.1999,0.1975,0.198,0.2168,0.2271,0.1946,0.192,0.178,0.1889,0.171,0.2392,0.2312,0.2343,0.2435,0.2312,0,0,0,0,0]},{"header":{"parameterUnit":"m.s-1","parameterCategory":2,"la1":30.2991,"la2":30.254,"lo1":-89.0895,"lo2":-89.0444,"dy":0.0017,"dx":0.0017,"nx":28,"ny":28,"refTime":"2024-10-09T03:00:00:Z","depth":"2","parameterNumber":3,"parameterNumberName":"V-component_of_CURRENTS"},"data":[0,0,0,0,0,0,0,0,0,0,0,0,0,0,0,0,0,0,0,0,0,0,0,0,0,0,0,0,0,0,0,0,0,0,0,0,0,0,0,0,0,0,0,0,0,0,0,0,0,0,0,0,0,0,0,0,0,0,0.0193,0.0193,0,0.0136,0.0135,0.0134,0.0089,0.0089,0.0088,0.0088,0.0022,0.002,0.0019,0,0,0,0,0,0,0,0,0,0,0,0,0,0.0218,0.0218,0.0193,0.0193,0.0192,0.0136,0.0135,0.0134,0.0089,0.0089,0.0088,0.0088,0.0022,0.0021,0.0019,0,0,0,0,0,0,0,0,0,0,0,0,0,0.0187,0.0218,0.0193,0.0164,0.0161,0.0136,0.0135,0.0134,0.0089,0.0089,0.0088,0.0088,0.0023,0.0021,0.0019,0.0014,0,0,0.0012,0.0011,0,0,0,0,0,0,0,0,0.0189,0.0186,0.0169,0.0166,0.0162,0.012,0.0119,0.0094,0.0089,0.0115,0.0088,0.0088,0.0055,0.005,0.0039,0.0011,0.0008,0.0012,0.001,0.0009,0.0009,0,0,0,0,0,0,0,0.0191,0.0188,0.0169,0.0168,0.0164,0.0137,0.0133,0.0114,0.0087,0.0113,0.011,0.0105,0.0053,0.0041,0.0037,0.0007,0.0012,0.001,0.0008,0.0007,-0.0033,-0.0033,0,0,0,0,0,0,0.0204,0.019,0.0171,0.0167,0.0176,0.0138,0.0132,0.0133,0.0087,0.0081,0.0106,0.0104,0.0045,0.0039,0.0034,0.0033,0.0009,0.0007,0.0006,-0.0033,-0.0033,-0.0033,0,0,0,0,0,0,0.0205,0.0203,0.0173,0.0178,0.0173,0.0138,0.0139,0.0132,0.012,0.0083,0.0075,0.01,0.0044,0.0037,0.0021,0.003,0.0006,0.0004,-0.0034,-0.0033,-0.0033,0.0026,0,0,0,0,0,0,0.0206,0.0204,0.0207,0.0179,0.0173,0.0164,0.0139,0.0131,0.0118,0.0115,0.0076,0.0069,0.0043,0.0024,0.0019,0.0026,0.0002,-0.0034,-0.0033,-0.0033,0.0023,0.0028,0.0032,0,0,0,0,0,0.0207,0.0218,0.0208,0.0205,0.018,0.0165,0.0159,0.0132,0.0119,0.0118,0.0091,0.007,0.0023,0.0023,0.0016,0.0023,-0.0034,-0.0033,-0.0033,0.0022,0.0027,0.0032,0,0,0,0,0,0,0.0229,0.0214,0.0202,0.0207,0.019,0.0158,0.0155,0.0137,0.0114,0.0111,0.0074,0.0066,0.0052,0.0031,0.0031,0.0012,-0.0009,-0.001,0.0034,0.0039,0.0043,0.0059,0.0001,0,0,0,0,0,0.0237,0.0241,0.0219,0.0222,0.0217,0.0187,0.0177,0.016,0.0137,0.0126,0.0098,0.007,0.005,0.004,0.0015,0.0009,-0.0017,0.0008,0.0012,0.0016,0.0023,-0.0007,-0.0005,-0.0031,-0.0031,-0.0031,0,0,0.0245,0.0238,0.024,0.0227,0.0211,0.0213,0.0179,0.0171,0.0172,0.0124,0.0114,0.0083,0.005,0.004,0.0032,0.0024,0.0009,0.0016,0.002,0.0025,-0.0006,-0.0004,-0.0001,-0.003,-0.003,-0.0031,0,0,0.0269,0.026,0.0272,0.0263,0.0247,0.0233,0.0234,0.0206,0.0192,0.0179,0.0145,0.0122,0.0088,0.0068,0.0054,0.0068,0.0031,0.0058,0.0095,0.0066,0.0068,0.007,0.0041,0.0039,0.0063,0.0063,0.0063,0,0.0279,0.0294,0.0272,0.0281,0.0282,0.0247,0.0263,0.0245,0.0213,0.0209,0.0184,0.0134,0.0103,0.0096,0.0098,0.0079,0.0055,0.008,0.0073,0.0073,0.0074,0.0044,0.0041,0.0066,0.0066,0.0065,0.0065,0,0.0312,0.0323,0.033,0.0334,0.0331,0.0339,0.0317,0.0308,0.0286,0.0267,0.0245,0.0196,0.017,0.0153,0.0129,0.0121,0.01,0.008,0.0063,0.008,0.0047,0.0044,0.007,0.0069,0.0068,0.0068,0,0,0.0342,0.0353,0.0356,0.0372,0.0363,0.0369,0.0371,0.0369,0.038,0.0331,0.0336,0.0285,0.0253,0.0235,0.0196,0.0167,0.0145,0.013,0.0127,0.0107,0.0079,0.0065,0.0059,0.0122,0.0122,0.0122,0.0055,0,0.0376,0.0414,0.0408,0.0445,0.0466,0.0442,0.0451,0.0441,0.0425,0.0418,0.0359,0.0345,0.0287,0.0276,0.0237,0.0172,0.0138,0.0165,0.006,0.0057,0.0047,0.0056,0.0079,0.0021,0.0051,0.005,0.005,0,0.0413,0.0437,0.0482,0.0512,0.0518,0.053,0.055,0.0556,0.0534,0.052,0.0489,0.044,0.0393,0.0337,0.0232,0.0251,0.0172,0.0112,0.0107,0.0073,0.0037,0.0007,0.0013,0.0044,0.0044,0.0045,0.0045,0,0.0455,0.0491,0.0534,0.0542,0.0564,0.0577,0.0589,0.0585,0.0611,0.0588,0.0597,0.0522,0.0495,0.0385,0.0255,0.0244,0.0134,0.0102,0.0012,0.001,-0.0002,-0.0004,0.0023,0.0023,0.0024,0.0024,0.0024,0,0.0498,0.0532,0.0556,0.0578,0.0634,0.0627,0.0683,0.068,0.0695,0.0737,0.0655,0.0666,0.0505,0.0419,0.0286,0.0145,0.0155,0.0022,-0.0006,0.0019,0.0019,0.0014,0.0014,0.0021,0.0022,0.0022,0.0023,0,0.0535,0.0548,0.0602,0.0637,0.0654,0.0694,0.0755,0.0799,0.0797,0.0847,0.0843,0.0778,0.0669,0.0499,0.0328,0.02,0.0056,-0.0001,0.004,0.0017,-0.0059,-0.0056,-0.0106,-0.0107,-0.0108,-0.0109,-0.011,0,0.0558,0.0588,0.0652,0.0692,0.071,0.0772,0.082,0.0848,0.0907,0.0922,0.0955,0.0865,0.0822,0.0564,0.0325,0.0093,0.0057,-0.0047,-0.0069,-0.0049,-0.0072,-0.0067,-0.0062,-0.0065,-0.0065,-0.0066,-0.0066,0,0.0604,0.0623,0.067,0.0756,0.0815,0.0898,0.097,0.1031,0.1068,0.1107,0.1141,0.1105,0.0861,0.0638,0.0314,0.0154,-0.0009,-0.0057,-0.0045,-0.0031,-0.0015,-0.0035,-0.0032,-0.0067,-0.0067,-0.0067,-0.0067,-0.0067,0.0638,0.0682,0.0744,0.0828,0.0903,0.1006,0.1084,0.1166,0.1262,0.1317,0.1281,0.1229,0.0966,0.0564,0.0282,-0.002,-0.0006,-0.0117,-0.0114,-0.0112,-0.0091,-0.0076,-0.0136,-0.0137,-0.0137,-0.0137,-0.0137,0,0.0684,0.0734,0.0814,0.0914,0.1005,0.104,0.1174,0.1252,0.1367,0.1404,0.1425,0.1176,0.0921,0.0611,0.0171,-0.0089,-0.0111,-0.0177,-0.0145,-0.0141,-0.0138,-0.0117,-0.0171,-0.0172,-0.0173,-0.0173,0,0,0.0707,0.0788,0.083,0.0979,0.1055,0.1187,0.1268,0.1375,0.1436,0.1475,0.1443,0.1381,0.1012,0.069,0.0335,0.008,0.0026,0.0026,0.0082,0.0166,0.0172,-0.0073,-0.0033,0,0,0,0,0]}],[{"header":{"parameterUnit":"m.s-1","parameterCategory":2,"la1":30.2991,"la2":30.254,"lo1":-89.0895,"lo2":-89.0444,"dy":0.0017,"dx":0.0017,"nx":28,"ny":28,"refTime":"2024-10-09T03:00:00:Z","depth":"4","parameterNumber":2,"parameterNumberName":"U-component_of_CURRENTS"},"data":[0,0,0,0,0,0,0,0,0,0,0,0,0,0,0,0,0,0,0,0,0,0,0,0,0,0,0,0,0,0,0,0,0,0,0,0,0,0,0,0,0,0,0,0,0,0,0,0,0,0,0,0,0,0,0,0,0,0,0.1521,0.1522,0,0.1574,0.1574,0.1575,0.162,0.162,0.1621,0.1622,0.1678,0.1679,0.168,0,0,0,0,0,0,0,0,0,0,0,0,0,0.1449,0.145,0.1521,0.1522,0.1522,0.1574,0.1574,0.1575,0.162,0.162,0.1621,0.1622,0.1678,0.1679,0.168,0,0,0,0,0,0,0,0,0,0,0,0,0,0.1487,0.145,0.1521,0.1552,0.1556,0.1573,0.1574,0.1575,0.1619,0.162,0.1621,0.1622,0.1678,0.1679,0.168,0.1669,0,0,0.1684,0.1685,0,0,0,0,0,0,0,0,0.1485,0.149,0.1547,0.155,0.1554,0.1593,0.157,0.1607,0.1619,0.1593,0.1622,0.1623,0.165,0.1654,0.1659,0.1672,0.1674,0.1684,0.1685,0.1686,0.1686,0,0,0,0,0,0,0,0.1482,0.1487,0.154,0.1548,0.1552,0.156,0.1567,0.1577,0.1614,0.1596,0.16,0.1608,0.1652,0.1658,0.1661,0.1675,0.1684,0.1686,0.1686,0.1687,0.1787,0.1789,0,0,0,0,0,0,0.1479,0.1485,0.1538,0.1542,0.1523,0.1561,0.1568,0.1578,0.1614,0.1621,0.1607,0.161,0.1655,0.1659,0.1663,0.1743,0.1686,0.1687,0.1688,0.1785,0.1788,0.179,0,0,0,0,0,0,0.1477,0.1483,0.1536,0.1516,0.1523,0.1562,0.1572,0.1578,0.1619,0.1623,0.163,0.1645,0.1656,0.1661,0.1707,0.1742,0.1688,0.1689,0.1783,0.1786,0.1789,0.1843,0,0,0,0,0,0,0.1475,0.1482,0.1503,0.1516,0.1525,0.157,0.1571,0.1579,0.1621,0.1627,0.1658,0.1662,0.1657,0.1705,0.1708,0.1743,0.169,0.1781,0.1784,0.1788,0.1839,0.1848,0.1855,0,0,0,0,0,0.1472,0.1491,0.1504,0.1512,0.1548,0.1571,0.1577,0.1605,0.1623,0.1645,0.1672,0.1663,0.1729,0.1707,0.1711,0.1746,0.1779,0.1783,0.1787,0.1836,0.1846,0.1855,0,0,0,0,0,0,0.1472,0.1498,0.1512,0.1541,0.1566,0.158,0.1608,0.1625,0.1663,0.168,0.1682,0.1689,0.1742,0.1739,0.1714,0.1787,0.1754,0.1759,0.179,0.18,0.1807,0.1813,0.1691,0,0,0,0,0,0.1481,0.1508,0.1528,0.1556,0.1571,0.1597,0.1617,0.1637,0.1663,0.1683,0.1705,0.1731,0.1755,0.1775,0.1793,0.1829,0.1832,0.1857,0.1865,0.1871,0.188,0.1913,0.1924,0.1803,0.1803,0.1803,0,0,0.149,0.1509,0.1526,0.1559,0.1583,0.161,0.1613,0.1654,0.1686,0.1682,0.1743,0.1761,0.1773,0.1817,0.1841,0.1822,0.191,0.1877,0.1882,0.1887,0.1918,0.193,0.194,0.1806,0.1806,0.1805,0,0,0.1509,0.1539,0.1565,0.1589,0.1631,0.1645,0.1665,0.17,0.1731,0.178,0.179,0.1833,0.1869,0.1884,0.1894,0.1957,0.1951,0.197,0.2013,0.2046,0.2056,0.2064,0.2091,0.2102,0.1973,0.1973,0.1973,0,0.1521,0.1551,0.1577,0.1605,0.163,0.1665,0.1693,0.1727,0.1776,0.1801,0.1812,0.1886,0.1899,0.1947,0.1975,0.1975,0.1992,0.1973,0.2055,0.2064,0.2072,0.2097,0.2108,0.1976,0.1976,0.1976,0.1975,0,0.1546,0.1584,0.1603,0.1649,0.1679,0.1713,0.1753,0.1798,0.1838,0.1864,0.1936,0.1962,0.2004,0.202,0.2019,0.2086,0.208,0.206,0.2027,0.2087,0.211,0.212,0.1981,0.198,0.1979,0.1978,0,0,0.1535,0.1606,0.1617,0.1643,0.1706,0.1727,0.1789,0.184,0.1889,0.1945,0.2003,0.2056,0.2081,0.2096,0.2108,0.2143,0.2217,0.2135,0.2136,0.2155,0.2296,0.2153,0.215,0.2215,0.2217,0.2218,0.2292,0,0.1548,0.16,0.1636,0.1693,0.1719,0.1771,0.1823,0.188,0.1937,0.2005,0.2048,0.2114,0.2107,0.2147,0.2179,0.2212,0.2247,0.2199,0.2241,0.2243,0.2102,0.2158,0.2225,0.2299,0.2302,0.2303,0.2305,0,0.1552,0.1588,0.1643,0.1711,0.173,0.1776,0.1862,0.1916,0.201,0.206,0.2129,0.2169,0.2244,0.2228,0.2309,0.2283,0.2301,0.2316,0.2319,0.2171,0.2118,0.2227,0.2323,0.2322,0.232,0.2319,0.2318,0,0.1511,0.1587,0.1631,0.1656,0.1742,0.1786,0.1842,0.1937,0.1991,0.2112,0.2164,0.2246,0.2306,0.2344,0.238,0.236,0.2457,0.2423,0.2308,0.2299,0.2381,0.2371,0.2478,0.2478,0.2478,0.2477,0.2477,0,0.1489,0.1527,0.1624,0.1647,0.1709,0.1779,0.1861,0.1932,0.2041,0.2101,0.2197,0.2251,0.2343,0.2398,0.2414,0.2391,0.2482,0.2327,0.2309,0.2404,0.2395,0.2389,0.2377,0.248,0.2479,0.2479,0.2478,0,0.1433,0.1498,0.1553,0.1655,0.1693,0.1742,0.1863,0.1913,0.2034,0.2119,0.2164,0.2284,0.2353,0.2417,0.2491,0.2419,0.2424,0.2394,0.2508,0.2494,0.2238,0.223,0.2267,0.2262,0.2259,0.2255,0.2253,0,0.1405,0.1431,0.1548,0.1583,0.1637,0.1722,0.1773,0.19,0.1949,0.2112,0.2133,0.2257,0.2317,0.2303,0.2383,0.2402,0.2372,0.2356,0.2278,0.2238,0.2219,0.2215,0.2212,0.2247,0.2246,0.2245,0.2244,0,0.1348,0.1408,0.1452,0.1528,0.1591,0.1644,0.1729,0.175,0.1886,0.2014,0.2055,0.2095,0.2167,0.2212,0.2248,0.2253,0.2353,0.2316,0.2322,0.2249,0.2215,0.2198,0.2199,0.2231,0.2233,0.2234,0.2235,0,0.131,0.1326,0.1397,0.1448,0.152,0.1536,0.1594,0.1642,0.1706,0.1876,0.1889,0.2018,0.2143,0.2136,0.2168,0.2166,0.2126,0.2044,0.2064,0.2079,0.1982,0.1908,0.1824,0,0,0,0,0,0.1259,0.1263,0.1306,0.1346,0.141,0.1452,0.1545,0.1603,0.1732,0.1713,0.1795,0.1853,0.19,0.1971,0.193,0.2087,0.2136,0.203,0.2052,0.2158,0.2174,0.2076,0,0,0,0,0,0,0.1223,0.1261,0.127,0.1249,0.1257,0.1308,0.1362,0.145,0.1445,0.1589,0.1626,0.1741,0.1818,0.1907,0.1896,0.1917,0.1891,0.2118,0.2113,0.215,0.2164,0.2176,0.208,0,0,0,0,0]},{"header":{"parameterUnit":"m.s-1","parameterCategory":2,"la1":30.2991,"la2":30.254,"lo1":-89.0895,"lo2":-89.0444,"dy":0.0017,"dx":0.0017,"nx":28,"ny":28,"refTime":"2024-10-09T03:00:00:Z","depth":"4","parameterNumber":3,"parameterNumberName":"V-component_of_CURRENTS"},"data":[0,0,0,0,0,0,0,0,0,0,0,0,0,0,0,0,0,0,0,0,0,0,0,0,0,0,0,0,0,0,0,0,0,0,0,0,0,0,0,0,0,0,0,0,0,0,0,0,0,0,0,0,0,0,0,0,0,0,0.0232,0.0232,0,0.0198,0.0197,0.0197,0.0172,0.0172,0.0172,0.0172,0.0134,0.0133,0.0132,0,0,0,0,0,0,0,0,0,0,0,0,0,0.0243,0.0243,0.0232,0.0231,0.0231,0.0198,0.0197,0.0197,0.0172,0.0172,0.0172,0.0172,0.0134,0.0133,0.0132,0,0,0,0,0,0,0,0,0,0,0,0,0,0.0226,0.0243,0.0232,0.0216,0.0214,0.0198,0.0197,0.0196,0.0172,0.0172,0.0172,0.0171,0.0134,0.0133,0.0132,0.0127,0,0,0.0127,0.0127,0,0,0,0,0,0,0,0,0.0227,0.0225,0.0218,0.0217,0.0215,0.019,0.0187,0.0173,0.0172,0.0187,0.0172,0.0171,0.0153,0.015,0.0142,0.0125,0.0123,0.0127,0.0126,0.0126,0.0125,0,0,0,0,0,0,0,0.0228,0.0226,0.0217,0.0218,0.0216,0.0199,0.0196,0.0184,0.017,0.0186,0.0184,0.0182,0.0152,0.0144,0.0141,0.0123,0.0127,0.0126,0.0125,0.0125,0.0102,0.0102,0,0,0,0,0,0,0.0236,0.0228,0.0218,0.0216,0.0222,0.0199,0.0196,0.0197,0.0171,0.0167,0.0182,0.0181,0.0146,0.0143,0.014,0.0146,0.0126,0.0125,0.0124,0.0102,0.0102,0.0102,0,0,0,0,0,0,0.0237,0.0236,0.022,0.0222,0.0219,0.0199,0.02,0.0197,0.0192,0.0168,0.0164,0.0182,0.0146,0.0142,0.0135,0.0143,0.0124,0.0123,0.0101,0.0102,0.0102,0.0149,0,0,0,0,0,0,0.0237,0.0236,0.0242,0.0223,0.0219,0.0216,0.0201,0.0196,0.0192,0.019,0.0167,0.0163,0.0146,0.0137,0.0134,0.0141,0.0122,0.0101,0.0102,0.0102,0.0147,0.0151,0.0154,0,0,0,0,0,0.0238,0.0247,0.0243,0.0242,0.0227,0.0217,0.0213,0.0198,0.0192,0.0193,0.0178,0.0164,0.0137,0.0136,0.0132,0.014,0.0101,0.0101,0.0102,0.0145,0.015,0.0154,0,0,0,0,0,0,0.0254,0.0245,0.024,0.0246,0.0235,0.0213,0.0214,0.0203,0.0192,0.0193,0.0168,0.0163,0.0159,0.0143,0.0143,0.0133,0.0116,0.0115,0.015,0.0154,0.0158,0.0169,0.0121,0,0,0,0,0,0.0261,0.0267,0.0252,0.0257,0.0254,0.0236,0.0231,0.0221,0.0207,0.0202,0.0185,0.0169,0.0157,0.0151,0.0136,0.0134,0.011,0.0134,0.0138,0.0141,0.0146,0.0117,0.0119,0.0104,0.0104,0.0104,0,0,0.0269,0.0265,0.0268,0.0261,0.0252,0.0255,0.0232,0.023,0.0232,0.02,0.02,0.0181,0.0158,0.0154,0.0151,0.0143,0.0131,0.0141,0.0144,0.0148,0.0118,0.0119,0.0121,0.0104,0.0104,0.0104,0,0,0.0287,0.0285,0.0295,0.029,0.0282,0.0273,0.0275,0.0257,0.0251,0.0246,0.0225,0.0212,0.0192,0.0178,0.0169,0.0182,0.015,0.0176,0.0204,0.0176,0.0177,0.0178,0.0146,0.0143,0.0179,0.0179,0.0179,0,0.0297,0.0309,0.0295,0.0303,0.0307,0.0285,0.0298,0.0287,0.0269,0.0269,0.0253,0.0224,0.0204,0.02,0.0204,0.0191,0.0167,0.0192,0.0181,0.0181,0.0181,0.0148,0.0145,0.0181,0.0181,0.0181,0.018,0,0.0319,0.0331,0.0337,0.0343,0.0344,0.0352,0.0339,0.0337,0.0326,0.0315,0.0305,0.0272,0.0256,0.0245,0.0229,0.0222,0.0202,0.0188,0.0173,0.0185,0.015,0.0145,0.0184,0.0184,0.0183,0.0182,0,0,0.0338,0.0352,0.0355,0.037,0.0369,0.0375,0.0382,0.0384,0.0396,0.0365,0.0371,0.034,0.0319,0.0307,0.028,0.0254,0.023,0.0225,0.0223,0.0198,0.0163,0.0146,0.0139,0.0213,0.0212,0.0212,0.0138,0,0.0361,0.0392,0.0391,0.0424,0.044,0.043,0.0441,0.0439,0.0432,0.043,0.0389,0.0384,0.0344,0.0339,0.0306,0.0253,0.0221,0.0251,0.0151,0.0148,0.0134,0.0134,0.0211,0.0134,0.0133,0.0132,0.0132,0,0.0384,0.0404,0.0442,0.0473,0.048,0.0496,0.0519,0.0528,0.0517,0.051,0.049,0.0455,0.0418,0.0379,0.0286,0.0307,0.0242,0.0191,0.0186,0.0152,0.0123,0.0118,0.0123,0.0124,0.0125,0.0125,0.0126,0,0.0406,0.0442,0.0478,0.0487,0.0514,0.0532,0.0549,0.0554,0.0576,0.0565,0.0573,0.0514,0.0491,0.0401,0.0294,0.0291,0.0183,0.0164,0.0083,0.008,0.0098,0.0098,0.0095,0.0095,0.0095,0.0095,0.0095,0,0.043,0.046,0.0495,0.0514,0.0565,0.057,0.0623,0.0626,0.0644,0.0674,0.062,0.0619,0.0496,0.0417,0.0312,0.0185,0.0193,0.0087,0.0061,0.0118,0.0122,0.0094,0.0095,0.0092,0.0093,0.0093,0.0094,0,0.0445,0.0465,0.0514,0.0557,0.0577,0.0615,0.068,0.0717,0.0724,0.0759,0.0757,0.0698,0.0595,0.0461,0.0313,0.0216,0.0092,0.0043,0.0115,0.0094,0.0001,0.0005,-0.0055,-0.0056,-0.0057,-0.0058,-0.0059,0,0.0453,0.048,0.055,0.0587,0.0612,0.0674,0.072,0.0754,0.0796,0.0805,0.0819,0.0737,0.0675,0.0458,0.0311,0.0102,0.0069,-0.0003,-0.0005,0.0006,-0.0014,-0.0008,-0.0002,-0.006,-0.006,-0.0061,-0.0061,0,0.0472,0.05,0.0541,0.0622,0.0681,0.0754,0.0818,0.0852,0.0887,0.0896,0.0868,0.0753,0.0634,0.046,0.0297,0.0147,0.004,-0.0014,-0.0013,-0.0016,-0.0002,-0.0018,-0.0012,-0.0065,-0.0064,-0.0064,-0.0064,0,0.0487,0.0521,0.0581,0.0652,0.0731,0.0803,0.084,0.0881,0.0919,0.0919,0.0907,0.0778,0.0707,0.0483,0.0335,0.0183,0.0138,0.0078,0.0073,0.0075,0.0131,0.0169,0.0137,0,0,0,0,0,0.0499,0.0539,0.0606,0.0685,0.0765,0.0815,0.0892,0.0922,0.0952,0.0937,0.0924,0.0811,0.059,0.0503,0.0348,0.0303,0.0105,0.0113,0.0032,-0.0084,-0.008,-0.0039,0,0,0,0,0,0,0.0505,0.0568,0.0603,0.07,0.0759,0.0853,0.0905,0.0928,0.0921,0.0922,0.0815,0.076,0.0554,0.0681,0.0343,0.0297,0.022,0.0016,0.0012,-0.0087,-0.0083,-0.008,-0.0036,0,0,0,0,0]}]]